VK2HN Weather Reports


Display with metric or nautical units.
time (UTC)temp
F
wind
direction
speed
MPH
gust
MPH
rain 1hr
in
rain 24hr
in
rain mn
in
humidity
%
barometer
mb
20260503174045 55 119 0.0 0.0 0.00 0.00 0.00 98 1016.4
20260503173545 55 119 0.0 0.0 0.00 0.00 0.00 98 1016.4
20260503173045 55 119 0.0 0.0 0.00 0.00 0.00 98 1016.5
20260503172545 55 119 0.0 0.0 0.00 0.00 0.00 98 1016.5
20260503172045 55 119 0.0 0.0 0.00 0.00 0.00 98 1016.4
20260503171545 56 119 0.0 0.0 0.00 0.00 0.00 98 1016.4
20260503171045 56 119 0.0 0.0 0.00 0.00 0.00 98 1016.5
20260503170545 56 119 0.0 0.0 0.00 0.00 0.00 98 1016.5
20260503150545 57 119 0.0 0.0 0.00 0.00 0.00 97 1017.5
20260503131046 58 119 0.0 0.0 0.00 0.00 0.00 96 1018.7
20260503130546 58 119 0.0 0.0 0.00 0.00 0.00 96 1018.6
20260503110546 60 119 0.0 0.0 0.00 0.00 0.00 94 1019.1
20260503081546 69 113 0.0 0.0 0.00 0.00 0.00 83 1018.3
20260503081046 69 113 0.0 0.0 0.00 0.00 0.00 83 1018.4
20260503080546 69 113 0.0 0.0 0.00 0.00 0.00 82 1018.3
20260503072546 71 104 0.0 0.0 0.00 0.00 0.00 78 1018.2
20260503072046 72 104 0.0 0.0 0.00 0.00 0.00 77 1018.2
20260503071546 72 104 1.0 2.0 0.00 0.00 0.00 77 1018.3
20260503071046 72 109 1.0 5.0 0.00 0.00 0.00 76 1018.1
20260503070546 73 96 1.0 4.0 0.00 0.00 0.00 75 1018.1
20260503055046 76 109 1.0 0.0 0.00 0.00 0.00 67 1018.3
20260503054546 76 109 1.0 7.0 0.00 0.00 0.00 66 1018.2
20260503054046 76 117 0.0 0.0 0.00 0.00 0.00 66 1018.3
20260503053546 77 117 0.0 4.0 0.00 0.00 0.00 66 1018.4
20260503053046 77 112 0.0 2.0 0.00 0.00 0.00 65 1018.4
20260503052546 77 111 0.0 4.0 0.00 0.00 0.00 64 1018.3
20260503052046 77 87 0.0 3.0 0.00 0.00 0.00 65 1018.5
20260503051546 77 99 0.0 0.0 0.00 0.00 0.00 64 1018.4
20260503051046 77 99 1.0 1.0 0.00 0.00 0.00 63 1018.5
20260503050546 78 99 1.0 8.0 0.00 0.00 0.00 62 1018.4
20260503050046 78 124 0.0 3.0 0.00 0.00 0.00 62 1018.5
20260503045546 78 331 0.0 2.0 0.00 0.00 0.00 62 1018.6
20260503045046 78 342 0.0 4.0 0.00 0.00 0.00 63 1018.6
20260503044546 78 78 0.0 0.0 0.00 0.00 0.00 63 1018.6
20260503044046 78 82 1.0 3.0 0.00 0.00 0.00 62 1018.6
20260503043546 79 119 1.0 4.0 0.00 0.00 0.00 61 1018.7
20260503043046 79 272 0.0 0.0 0.00 0.00 0.00 60 1018.7
20260503042546 79 272 1.0 4.0 0.00 0.00 0.00 61 1018.8
20260503042046 79 128 2.0 5.0 0.00 0.00 0.00 61 1018.9
20260503041546 79 137 1.0 9.0 0.00 0.00 0.00 58 1019.1
20260503041046 79 112 1.0 8.0 0.00 0.00 0.00 60 1019.0
20260503040546 79 275 1.0 7.0 0.00 0.00 0.00 60 1019.0
20260503040046 80 58 0.0 1.0 0.00 0.00 0.00 59 1019.1
20260503035546 80 55 0.0 0.0 0.00 0.00 0.00 61 1019.1
20260503035046 79 129 0.0 1.0 0.00 0.00 0.00 59 1019.1
20260503034546 79 15 1.0 4.0 0.00 0.00 0.00 59 1019.2
20260503034046 79 87 1.0 7.0 0.00 0.00 0.00 60 1019.3
20260503033546 79 5 1.0 6.0 0.00 0.00 0.00 60 1019.3
20260503033046 80 131 1.0 4.0 0.00 0.00 0.00 57 1019.4
20260503032547 80 112 0.0 3.0 0.00 0.00 0.00 57 1019.5
20260503032046 80 309 0.0 3.0 0.00 0.00 0.00 60 1019.6
20260503031547 79 304 0.0 2.0 0.00 0.00 0.00 62 1019.7
20260503031046 79 303 1.0 1.0 0.00 0.00 0.00 61 1019.8
20260503030547 79 305 2.0 7.0 0.00 0.00 0.00 60 1019.9
20260503030046 79 292 1.0 5.0 0.00 0.00 0.00 59 1020.0
20260503025547 79 268 1.0 6.0 0.00 0.00 0.00 59 1020.0
20260503025047 79 274 0.0 3.0 0.00 0.00 0.00 60 1020.1
20260503024547 79 271 0.0 1.0 0.00 0.00 0.00 60 1020.3
20260503024047 79 286 0.0 3.0 0.00 0.00 0.00 60 1020.4
20260503023547 78 285 1.0 2.0 0.00 0.00 0.00 62 1020.7
20260503023047 78 286 1.0 5.0 0.00 0.00 0.00 62 1020.6
20260503022547 78 311 2.0 6.0 0.00 0.00 0.00 61 1020.4
20260503022047 77 80 1.0 8.0 0.00 0.00 0.00 63 1020.7
20260503021547 78 113 1.0 3.0 0.00 0.00 0.00 63 1020.6
20260503021047 78 306 1.0 5.0 0.00 0.00 0.00 63 1020.7
20260503020547 78 63 1.0 2.0 0.00 0.00 0.00 65 1020.8
20260503020047 77 276 1.0 6.0 0.00 0.00 0.00 66 1021.0
20260503015547 76 263 1.0 6.0 0.00 0.00 0.00 68 1021.1
20260503015047 76 298 2.0 4.0 0.00 0.00 0.00 65 1021.2
20260503014547 76 300 2.0 10.0 0.00 0.00 0.00 66 1021.4
20260503014047 76 277 1.0 6.0 0.00 0.00 0.00 69 1021.5
20260503013547 75 304 1.0 4.0 0.00 0.00 0.00 71 1021.7
20260503013047 74 274 1.0 4.0 0.00 0.00 0.00 71 1021.8
20260503012547 73 277 0.0 6.0 0.00 0.00 0.00 74 1021.9
20260503012047 73 292 0.0 3.0 0.00 0.00 0.00 74 1022.0
20260503011547 73 292 1.0 2.0 0.00 0.00 0.00 74 1022.0
20260503011047 72 332 1.0 5.0 0.00 0.00 0.00 77 1022.1
20260503010547 72 36 1.0 3.0 0.00 0.00 0.00 78 1022.2
20260503010047 71 92 0.0 4.0 0.00 0.00 0.00 78 1022.3
20260503005547 71 273 1.0 2.0 0.00 0.00 0.00 80 1022.3
20260503005047 71 273 1.0 4.0 0.00 0.00 0.00 79 1022.5
20260503004547 70 71 0.0 2.0 0.00 0.00 0.00 80 1022.5
20260503004047 70 64 0.0 3.0 0.00 0.00 0.00 81 1022.5
20260503003547 70 344 0.0 2.0 0.00 0.00 0.00 82 1022.4
20260503003047 69 342 0.0 1.0 0.00 0.00 0.00 82 1022.5
20260503002547 69 342 0.0 1.0 0.00 0.00 0.00 84 1022.6
20260503002047 69 342 0.0 0.0 0.00 0.00 0.00 84 1022.7
20260503001547 68 343 1.0 1.0 0.00 0.00 0.00 84 1022.6
20260503001047 68 291 1.0 3.0 0.00 0.00 0.00 86 1022.7
20260503000547 68 80 0.0 2.0 0.00 0.00 0.00 88 1022.6
20260503000047 67 80 0.0 4.0 0.00 0.00 0.00 89 1022.7
20260502235547 67 184 0.0 1.0 0.00 0.00 0.00 90 1022.7
20260502235047 66 244 0.0 3.0 0.00 0.00 0.00 92 1022.9
20260502234547 66 239 0.0 0.0 0.00 0.00 0.00 93 1022.8
20260502234047 65 239 0.0 0.0 0.00 0.00 0.00 94 1023.0
20260502233547 65 244 0.0 1.0 0.00 0.00 0.00 95 1022.9
20260502233047 64 245 0.0 0.0 0.00 0.00 0.00 96 1023.0
20260502232547 64 245 0.0 0.0 0.00 0.00 0.00 97 1023.1
20260502232047 64 245 0.0 0.0 0.00 0.00 0.00 97 1023.3
20260502231547 63 245 0.0 0.0 0.00 0.00 0.00 97 1023.4
20260502231047 63 245 0.0 0.0 0.00 0.00 0.00 98 1023.3
20260502230547 63 242 0.0 2.0 0.00 0.00 0.00 98 1023.4
20260502230047 63 239 0.0 3.0 0.00 0.00 0.00 99 1023.5
20260502225547 62 239 1.0 3.0 0.00 0.00 0.00 99 1023.5
20260502225047 62 238 1.0 3.0 0.00 0.00 0.00 99 1023.4
20260502224547 62 197 0.0 3.0 0.00 0.00 0.00 99 1023.5
20260502224047 62 178 0.0 2.0 0.00 0.00 0.00 99 1023.4
20260502223547 61 178 0.0 0.0 0.00 0.00 0.00 99 1023.4
20260502223047 61 178 0.0 1.0 0.00 0.00 0.00 99 1023.4
20260502222547 61 178 0.0 0.0 0.00 0.00 0.00 99 1023.5
20260502222047 61 178 0.0 0.0 0.00 0.00 0.00 99 1023.4
20260502221547 60 178 0.0 0.0 0.00 0.00 0.00 100 1023.2
20260502221047 60 178 0.0 0.0 0.00 0.00 0.00 99 1023.3
20260502220547 59 178 0.0 0.0 0.00 0.00 0.00 99 1023.4
20260502220047 59 178 0.0 0.0 0.00 0.00 0.00 99 1023.1
20260502215547 58 178 0.0 0.0 0.00 0.00 0.00 99 1023.1
20260502215047 58 178 0.0 0.0 0.00 0.00 0.00 99 1023.1
20260502214547 58 178 0.0 0.0 0.00 0.00 0.00 99 1023.0
20260502214047 57 178 0.0 0.0 0.00 0.00 0.00 99 1023.0
20260502213547 57 178 0.0 0.0 0.00 0.00 0.00 99 1023.0
20260502213047 57 178 0.0 0.0 0.00 0.00 0.00 99 1022.9
20260502212547 57 178 0.0 0.0 0.00 0.00 0.00 99 1022.9
20260502212047 57 178 0.0 0.0 0.00 0.00 0.00 99 1022.7
20260502211547 57 178 0.0 0.0 0.00 0.00 0.00 99 1022.6
20260502211047 56 178 0.0 0.0 0.00 0.00 0.00 99 1022.7
20260502210547 56 178 0.0 0.0 0.00 0.00 0.00 99 1022.8
20260502210047 56 178 0.0 0.0 0.00 0.00 0.00 99 1022.7
20260502205547 56 178 0.0 0.0 0.00 0.00 0.00 99 1022.7
20260502205047 56 178 0.0 0.0 0.00 0.00 0.00 98 1022.7
20260502204547 55 178 0.0 0.0 0.00 0.00 0.00 98 1022.6
20260502204047 55 178 0.0 0.0 0.00 0.00 0.00 98 1022.6
20260502203547 55 178 0.0 0.0 0.00 0.00 0.00 98 1022.6
20260502203047 55 178 0.0 0.0 0.00 0.00 0.00 98 1022.6
20260502202547 55 178 0.0 0.0 0.00 0.00 0.00 98 1022.7
20260502202047 55 178 0.0 0.0 0.00 0.00 0.00 98 1022.5
20260502201547 55 178 0.0 0.0 0.00 0.00 0.00 98 1022.6
20260502201047 55 178 0.0 0.0 0.00 0.00 0.00 98 1022.7
20260502200547 55 178 0.0 0.0 0.00 0.00 0.00 98 1022.7
20260502200047 55 178 0.0 0.0 0.00 0.00 0.00 98 1022.8
20260502195547 54 178 0.0 0.0 0.00 0.00 0.00 98 1022.6
20260502195047 55 178 0.0 0.0 0.00 0.00 0.00 98 1022.7
20260502194547 55 178 0.0 0.0 0.00 0.00 0.00 98 1022.6
20260502194047 55 178 0.0 0.0 0.00 0.00 0.00 98 1022.8
20260502193547 55 178 0.0 0.0 0.00 0.00 0.00 98 1022.7
20260502193047 55 178 0.0 0.0 0.00 0.00 0.00 98 1022.7
20260502192547 55 178 0.0 0.0 0.00 0.00 0.00 98 1022.7
20260502192047 55 178 0.0 0.0 0.00 0.00 0.00 98 1022.6
20260502191547 55 178 0.0 0.0 0.00 0.00 0.00 98 1022.5
20260502191047 55 178 0.0 0.0 0.00 0.00 0.00 98 1022.4
20260502190547 55 178 0.0 0.0 0.00 0.00 0.00 98 1022.5
20260502190047 55 178 0.0 0.0 0.00 0.00 0.00 98 1022.7
20260502185547 54 178 0.0 0.0 0.00 0.00 0.00 98 1022.7
20260502185047 54 178 0.0 0.0 0.00 0.00 0.00 98 1022.6
20260502184547 54 178 0.0 0.0 0.00 0.00 0.00 97 1022.4
20260502184047 55 178 0.0 0.0 0.00 0.00 0.00 97 1022.4
20260502183547 55 178 0.0 0.0 0.00 0.00 0.00 97 1022.5
20260502183047 55 178 0.0 0.0 0.00 0.00 0.00 98 1022.6
20260502182547 55 178 0.0 0.0 0.00 0.00 0.00 97 1022.5
20260502182047 55 178 0.0 0.0 0.00 0.00 0.00 98 1022.6
20260502181547 55 178 0.0 0.0 0.00 0.00 0.00 98 1022.4
20260502181047 55 178 0.0 0.0 0.00 0.00 0.00 98 1022.4
20260502180547 55 178 0.0 0.0 0.00 0.00 0.00 98 1022.5